Home   Weather   Antananarivo   Past weeks
Flag for Madagascar

Past Weather in Antananarivo, Madagascar — Yesterday and Last 2 Weeks

Now
72 °F

Passing clouds.


Feels Like: 75 °F
Forecast: 83 / 63 °F
Wind: 5 mph from West

Location: Antananarivo / Ivato

Current Time: Oct 22, 2019 at 9:08:40 am

Latest Report: Oct 22, 2019 at 8:00 am


Visibility: 5 mi

Pressure: 30.09 "Hg (25.92 "Hg at 1287m altitude)

Humidity: 69%

Dew Point: 61 °F

Location of AntananarivoLocation

Past Weather in Antananarivo — Graph

°F

Antananarivo Temperature Yesterday

Maximum temperature yesterday: 84 °F (at 2:30 pm)
Minimum temperature yesterday: 55 °F (at 5:00 am)
Average temperature yesterday: 70 °F

High & Low Weather Summary for the Past Weeks

 TemperatureHumidityPressure
High84 °F (Oct 14, 11:30 am)100% (Oct 14, 9:00 pm)30.27 "Hg (Oct 14, 9:00 pm)
Low52 °F (Oct 20, 5:00 am)21% (Oct 20, 3:30 pm)30.01 "Hg (Oct 15, 3:19 pm)
Average67 °F69%30.16 "Hg
* Reported Oct 7 8:00 am — Oct 22 8:00 am, Antananarivo. Weather by CustomWeather, © 2019

Note: Actual official high and low records may vary slightly from our data, if they occured in-between our weather recording intervals... More about our weather records

Advertising

Antananarivo Weather History for the Previous 24 Hours

Scroll right to see more
 ConditionsComfort  
Time TempWeatherWind HumidityBarometerVisibility
8:00 am
Tue, Oct 22
72 °FPassing clouds.5 mph69%30.09 "Hg5 mi
7:30 am72 °FPassing clouds.5 mph73%30.09 "Hg5 mi
7:00 am70 °FPassing clouds.2 mph78%30.09 "Hg5 mi
6:30 am68 °FPassing clouds.No wind83%30.09 "Hg5 mi
6:00 am63 °FPassing clouds.5 mph100%30.07 "Hg5 mi
5:30 am64 °FScattered clouds.3 mph88%30.07 "Hg4 mi
5:00 am64 °FPassing clouds.3 mph88%30.07 "HgN/A
4:30 am64 °FPassing clouds.3 mph94%30.04 "HgN/A
4:00 am66 °FPassing clouds.2 mph88%30.04 "HgN/A
3:30 am66 °FPassing clouds.3 mph88%30.04 "HgN/A
3:00 am66 °FPassing clouds.2 mph88%30.04 "HgN/A
2:30 am66 °FPassing clouds.No wind88%30.04 "HgN/A
2:00 am66 °FPassing clouds.1 mph88%30.04 "HgN/A
1:30 am66 °FPassing clouds.1 mph88%30.04 "HgN/A
1:00 am66 °FPassing clouds.1 mph88%30.07 "HgN/A
12:30 am68 °FPassing clouds.2 mph83%30.07 "HgN/A
12:00 am66 °FPassing clouds.3 mph88%30.07 "HgN/A
11:30 pm
Mon, Oct 21
68 °FPassing clouds.3 mph78%30.09 "HgN/A
11:00 pm68 °FPassing clouds.5 mph78%30.09 "HgN/A
10:30 pm68 °FPassing clouds.No wind78%30.09 "HgN/A
10:00 pm70 °FPassing clouds.6 mph73%30.09 "HgN/A
9:30 pm70 °FPassing clouds.8 mph73%30.09 "HgN/A
9:00 pm72 °FPassing clouds.6 mph61%30.09 "HgN/A
8:30 pm73 °FPassing clouds.6 mph53%30.09 "HgN/A
8:00 pm72 °FPassing clouds.7 mph57%30.07 "HgN/A
7:30 pm75 °FPassing clouds.7 mph47%30.07 "HgN/A
7:00 pm75 °FPassing clouds.7 mph44%30.07 "HgN/A
6:30 pm75 °FPassing clouds.7 mph47%30.04 "HgN/A
6:00 pm77 °FPassing clouds.9 mph44%30.04 "HgN/A
5:30 pm79 °FScattered clouds.13 mph42%30.04 "HgN/A
5:00 pm79 °FScattered clouds.5 mph42%30.01 "HgN/A
4:30 pm81 °FScattered clouds.9 mph39%30.01 "HgN/A
4:00 pm81 °FPartly sunny.7 mph37%30.01 "HgN/A
3:30 pm81 °FPartly sunny.5 mph39%30.01 "HgN/A
3:00 pm82 °FPartly sunny.7 mph35%30.01 "HgN/A
2:30 pm84 °FPartly sunny.12 mph33%30.01 "HgN/A
2:00 pm82 °FPartly sunny.7 mph35%30.04 "HgN/A
1:30 pm81 °FPartly sunny.6 mph37%30.04 "HgN/A
1:00 pm81 °FScattered clouds.3 mph37%30.07 "HgN/A
12:30 pm81 °FScattered clouds.7 mph37%30.07 "HgN/A
12:00 pm79 °FScattered clouds.7 mph42%30.07 "HgN/A
11:30 am79 °FPassing clouds.8 mph48%30.09 "HgN/A
11:00 am77 °FPassing clouds.7 mph47%30.09 "HgN/A
10:30 am75 °FPassing clouds.7 mph50%30.12 "HgN/A
10:00 am73 °FScattered clouds.5 mph53%30.12 "HgN/A
9:30 am73 °FScattered clouds.5 mph57%30.15 "HgN/A
9:00 am70 °FPartly sunny.6 mph60%30.15 "HgN/A
Weather by CustomWeather, © 2019

See weather overview